Time,TemperatureF,DewpointF,PressureIn,WindDirection,WindDirectionDegrees,WindSpeedMPH,WindSpeedGustMPH,Humidity,HourlyPrecipIn,Conditions,Clouds,dailyrainin,SoftwareType,DateUTC
2013-06-22 00:03:00,79.8,49.0,25.53,South,180,18.0,26.3,34,0.00,,,0.00,Rainwise IP-100,2013-06-22 06:03:00,
2013-06-22 00:08:00,79.8,49.0,25.52,South,180,17.5,25.2,34,0.00,,,0.00,Rainwise IP-100,2013-06-22 06:08:00,
2013-06-22 00:13:00,79.7,49.0,25.53,SSE,157,22.9,25.9,34,0.00,,,0.00,Rainwise IP-100,2013-06-22 06:13:00,
2013-06-22 00:18:00,79.4,48.0,25.53,South,180,21.9,27.3,34,0.00,,,0.00,Rainwise IP-100,2013-06-22 06:18:00,
2013-06-22 00:23:00,79.3,49.0,25.52,South,180,20.5,28.2,35,0.00,,,0.00,Rainwise IP-100,2013-06-22 06:23:00,
2013-06-22 00:28:00,79.2,49.0,25.52,South,180,18.9,27.0,35,0.00,,,0.00,Rainwise IP-100,2013-06-22 06:28:00,
2013-06-22 00:33:00,79.0,50.0,25.52,SSW,202,16.8,30.3,36,0.00,,,0.00,Rainwise IP-100,2013-06-22 06:33:00,
2013-06-22 00:38:00,78.9,50.0,25.53,South,180,14.2,26.1,36,0.00,,,0.00,Rainwise IP-100,2013-06-22 06:38:00,
2013-06-22 00:43:00,78.8,49.0,25.52,South,180,16.3,27.7,35,0.00,,,0.00,Rainwise IP-100,2013-06-22 06:43:00,
2013-06-22 00:48:00,78.8,48.0,25.53,SSE,157,22.4,27.3,34,0.00,,,0.00,Rainwise IP-100,2013-06-22 06:48:00,
2013-06-22 00:53:00,78.7,48.0,25.53,SSW,202,9.6,26.8,34,0.00,,,0.00,Rainwise IP-100,2013-06-22 06:53:00,
2013-06-22 00:58:00,78.6,47.5,25.53,SSW,202,13.3,28.2,33,0.00,,,0.00,Rainwise IP-100,2013-06-22 06:58:00,
2013-06-22 01:03:00,78.6,47.5,25.53,SSW,202,14.7,28.9,33,0.00,,,0.00,Rainwise IP-100,2013-06-22 07:03:00,
2013-06-22 01:08:00,78.7,47.0,25.53,SSE,157,13.5,27.7,32,0.00,,,0.00,Rainwise IP-100,2013-06-22 07:08:00,
2013-06-22 01:13:00,78.6,47.0,25.53,SSW,202,12.8,24.0,32,0.00,,,0.00,Rainwise IP-100,2013-06-22 07:13:00,
2013-06-22 01:18:00,78.3,46.0,25.52,SSW,202,9.6,22.4,32,0.00,,,0.00,Rainwise IP-100,2013-06-22 07:18:00,
2013-06-22 01:23:00,78.1,46.0,25.53,SSE,157,7.9,20.1,32,0.00,,,0.00,Rainwise IP-100,2013-06-22 07:23:00,
2013-06-22 01:28:00,77.9,46.0,25.53,WSW,247,8.4,19.8,32,0.00,,,0.00,Rainwise IP-100,2013-06-22 07:28:00,
2013-06-22 01:33:00,77.8,46.0,25.53,SSW,202,9.3,21.0,32,0.00,,,0.00,Rainwise IP-100,2013-06-22 07:33:00,
2013-06-22 01:38:00,77.8,47.0,25.53,SSW,202,19.1,21.0,33,0.00,,,0.00,Rainwise IP-100,2013-06-22 07:38:00,
2013-06-22 01:43:00,77.6,47.0,25.54,WSW,247,9.8,19.4,33,0.00,,,0.00,Rainwise IP-100,2013-06-22 07:43:00,
2013-06-22 01:48:00,77.1,45.0,25.56,WNW,292,8.4,16.6,32,0.00,,,0.00,Rainwise IP-100,2013-06-22 07:48:00,
2013-06-22 01:53:00,75.2,44.0,25.56,SSW,202,9.8,19.1,33,0.00,,,0.00,Rainwise IP-100,2013-06-22 07:53:00,
2013-06-22 01:58:00,73.8,43.0,25.56,WNW,292,7.7,20.5,33,0.00,,,0.00,Rainwise IP-100,2013-06-22 07:58:00,
2013-06-22 02:03:00,73.3,44.0,25.56,WSW,247,8.6,18.2,35,0.00,,,0.00,Rainwise IP-100,2013-06-22 08:03:00,
2013-06-22 02:08:00,72.2,44.0,25.57,WNW,292,8.4,16.8,36,0.00,,,0.00,Rainwise IP-100,2013-06-22 08:08:00,
2013-06-22 02:13:00,71.7,44.0,25.56,WSW,247,6.5,16.6,37,0.00,,,0.00,Rainwise IP-100,2013-06-22 08:13:00,
2013-06-22 02:18:00,71.1,44.0,25.56,WNW,292,13.1,17.0,38,0.00,,,0.00,Rainwise IP-100,2013-06-22 08:18:00,
2013-06-22 02:23:00,70.8,45.0,25.57,WNW,292,8.4,13.3,39,0.00,,,0.00,Rainwise IP-100,2013-06-22 08:23:00,
2013-06-22 02:28:00,70.0,45.0,25.56,WSW,247,7.9,13.3,40,0.00,,,0.00,Rainwise IP-100,2013-06-22 08:28:00,
2013-06-22 02:33:00,69.2,45.0,25.56,WNW,292,6.8,15.4,41,0.00,,,0.00,Rainwise IP-100,2013-06-22 08:33:00,
2013-06-22 02:38:00,68.6,44.0,25.56,WNW,292,6.5,12.1,42,0.00,,,0.00,Rainwise IP-100,2013-06-22 08:38:00,
2013-06-22 02:43:00,67.9,44.0,25.57,WNW,292,7.5,12.6,42,0.00,,,0.00,Rainwise IP-100,2013-06-22 08:43:00,
2013-06-22 02:48:00,67.2,44.0,25.57,WNW,292,9.3,13.1,43,0.00,,,0.00,Rainwise IP-100,2013-06-22 08:48:00,
2013-06-22 02:53:00,66.5,43.0,25.57,WNW,292,4.9,11.7,43,0.00,,,0.00,Rainwise IP-100,2013-06-22 08:53:00,
2013-06-22 02:58:00,66.0,43.0,25.57,WNW,292,3.7,12.1,43,0.00,,,0.00,Rainwise IP-100,2013-06-22 08:58:00,
2013-06-22 03:03:00,65.6,43.0,25.57,NW,315,8.2,11.4,44,0.00,,,0.00,Rainwise IP-100,2013-06-22 09:03:00,
2013-06-22 03:08:00,65.4,43.0,25.58,NW,315,6.3,13.5,44,0.00,,,0.00,Rainwise IP-100,2013-06-22 09:08:00,
2013-06-22 03:13:00,65.1,43.0,25.57,WNW,292,6.8,11.0,45,0.00,,,0.00,Rainwise IP-100,2013-06-22 09:13:00,
2013-06-22 03:18:00,64.9,43.0,25.58,WNW,292,8.9,13.3,45,0.00,,,0.00,Rainwise IP-100,2013-06-22 09:18:00,
2013-06-22 03:23:00,64.9,44.0,25.58,NW,315,5.8,11.9,46,0.00,,,0.00,Rainwise IP-100,2013-06-22 09:23:00,
2013-06-22 03:28:00,64.6,43.0,25.58,NNW,337,5.6,11.0,46,0.00,,,0.00,Rainwise IP-100,2013-06-22 09:28:00,
2013-06-22 03:33:00,64.4,44.0,25.58,NW,315,4.9,10.7,47,0.00,,,0.00,Rainwise IP-100,2013-06-22 09:33:00,
2013-06-22 03:38:00,64.2,44.0,25.58,NNW,337,6.1,8.6,48,0.00,,,0.00,Rainwise IP-100,2013-06-22 09:38:00,
2013-06-22 03:43:00,63.9,44.0,25.58,NW,315,4.9,8.6,49,0.00,,,0.00,Rainwise IP-100,2013-06-22 09:43:00,
2013-06-22 03:48:00,63.4,45.0,25.59,NW,315,5.1,8.6,50,0.00,,,0.00,Rainwise IP-100,2013-06-22 09:48:00,
2013-06-22 03:53:00,63.0,44.0,25.58,WNW,292,4.4,8.2,50,0.00,,,0.00,Rainwise IP-100,2013-06-22 09:53:00,
2013-06-22 03:58:00,62.5,44.0,25.58,WNW,292,4.4,7.5,51,0.00,,,0.00,Rainwise IP-100,2013-06-22 09:58:00,
2013-06-22 04:03:00,61.9,44.0,25.58,West,270,3.5,6.8,52,0.00,,,0.00,Rainwise IP-100,2013-06-22 10:03:00,
2013-06-22 04:08:00,61.5,44.0,25.58,WNW,292,5.1,5.6,53,0.00,,,0.00,Rainwise IP-100,2013-06-22 10:08:00,
2013-06-22 04:13:00,61.1,44.0,25.58,West,270,3.0,5.8,53,0.00,,,0.00,Rainwise IP-100,2013-06-22 10:13:00,
2013-06-22 04:18:00,60.5,44.0,25.58,WNW,292,5.1,7.2,54,0.00,,,0.00,Rainwise IP-100,2013-06-22 10:18:00,
2013-06-22 04:23:00,60.0,44.0,25.58,WNW,292,4.7,8.4,56,0.00,,,0.00,Rainwise IP-100,2013-06-22 10:23:00,
2013-06-22 04:28:00,59.6,44.0,25.58,WNW,292,5.4,7.5,56,0.00,,,0.00,Rainwise IP-100,2013-06-22 10:28:00,
2013-06-22 04:33:00,59.3,44.0,25.58,WNW,292,4.9,8.4,57,0.00,,,0.00,Rainwise IP-100,2013-06-22 10:33:00,
2013-06-22 04:38:00,59.3,45.0,25.58,WNW,292,8.9,8.9,58,0.00,,,0.00,Rainwise IP-100,2013-06-22 10:38:00,
2013-06-22 04:43:00,59.6,45.0,25.58,WSW,247,9.8,12.4,59,0.00,,,0.00,Rainwise IP-100,2013-06-22 10:43:00,
2013-06-22 04:48:00,60.2,45.0,25.58,WNW,292,3.5,10.3,58,0.00,,,0.00,Rainwise IP-100,2013-06-22 10:48:00,
2013-06-22 04:53:00,60.0,45.0,25.58,WNW,292,7.5,8.9,57,0.00,,,0.00,Rainwise IP-100,2013-06-22 10:53:00,
2013-06-22 04:58:00,59.1,44.0,25.58,WNW,292,7.2,10.5,57,0.00,,,0.00,Rainwise IP-100,2013-06-22 10:58:00,
2013-06-22 05:03:00,58.4,44.0,25.58,WNW,292,7.2,9.3,59,0.00,,,0.00,Rainwise IP-100,2013-06-22 11:03:00,
2013-06-22 05:08:00,58.2,44.0,25.58,WNW,292,6.5,11.0,60,0.00,,,0.00,Rainwise IP-100,2013-06-22 11:08:00,
2013-06-22 05:13:00,58.2,45.0,25.58,WNW,292,5.8,10.3,61,0.00,,,0.00,Rainwise IP-100,2013-06-22 11:13:00,
2013-06-22 05:18:00,58.1,45.0,25.59,WNW,292,5.6,9.8,61,0.00,,,0.00,Rainwise IP-100,2013-06-22 11:18:00,
2013-06-22 05:23:00,58.1,45.0,25.59,NW,315,8.2,12.4,62,0.00,,,0.00,Rainwise IP-100,2013-06-22 11:23:00,
2013-06-22 05:28:00,58.1,45.0,25.59,NW,315,10.5,14.7,62,0.00,,,0.00,Rainwise IP-100,2013-06-22 11:28:00,
2013-06-22 05:33:00,58.3,46.0,25.59,NNW,337,11.7,14.5,64,0.00,,,0.00,Rainwise IP-100,2013-06-22 11:33:00,
2013-06-22 05:38:00,58.7,47.0,25.59,NNW,337,11.0,17.0,64,0.00,,,0.00,Rainwise IP-100,2013-06-22 11:38:00,
2013-06-22 05:43:00,59.2,47.5,25.60,NW,315,10.5,14.9,65,0.00,,,0.00,Rainwise IP-100,2013-06-22 11:43:00,
2013-06-22 05:48:00,59.4,47.5,25.59,NNW,337,7.0,13.3,65,0.00,,,0.00,Rainwise IP-100,2013-06-22 11:48:00,
2013-06-22 05:53:00,59.4,48.0,25.59,NNW,337,10.0,12.8,66,0.00,,,0.00,Rainwise IP-100,2013-06-22 11:53:00,
2013-06-22 05:58:00,59.4,48.0,25.59,NNW,337,6.3,13.5,66,0.00,,,0.00,Rainwise IP-100,2013-06-22 11:58:00,
2013-06-22 06:03:00,59.6,48.0,25.59,NNW,337,5.4,14.5,67,0.00,,,0.00,Rainwise IP-100,2013-06-22 12:03:00,
2013-06-22 06:08:00,60.0,49.0,25.59,NNW,337,10.0,17.3,67,0.00,,,0.00,Rainwise IP-100,2013-06-22 12:08:00,
2013-06-22 06:13:00,60.5,50.0,25.59,NNW,337,6.1,19.1,67,0.00,,,0.00,Rainwise IP-100,2013-06-22 12:13:00,
2013-06-22 06:18:00,61.1,50.0,25.59,NW,315,13.1,20.8,67,0.00,,,0.00,Rainwise IP-100,2013-06-22 12:18:00,
2013-06-22 06:23:00,61.4,50.5,25.60,NNW,337,9.3,17.5,67,0.00,,,0.00,Rainwise IP-100,2013-06-22 12:23:00,
2013-06-22 06:28:00,61.5,50.5,25.59,NNW,337,10.3,16.3,68,0.00,,,0.00,Rainwise IP-100,2013-06-22 12:28:00,
2013-06-22 06:33:00,61.7,51.0,25.60,NNW,337,14.0,14.0,69,0.00,,,0.00,Rainwise IP-100,2013-06-22 12:33:00,
2013-06-22 06:38:00,61.9,52.0,25.59,NNW,337,15.4,19.4,70,0.00,,,0.00,Rainwise IP-100,2013-06-22 12:38:00,
2013-06-22 06:43:00,62.2,53.0,25.60,NNW,337,15.9,17.0,71,0.00,,,0.00,Rainwise IP-100,2013-06-22 12:43:00,
2013-06-22 06:48:00,62.5,53.5,25.60,NNW,337,9.3,16.6,72,0.00,,,0.00,Rainwise IP-100,2013-06-22 12:48:00,
2013-06-22 06:53:00,62.7,53.5,25.60,NNW,337,10.7,17.7,72,0.00,,,0.00,Rainwise IP-100,2013-06-22 12:53:00,
2013-06-22 06:58:00,63.0,54.0,25.59,NNW,337,8.9,18.4,72,0.00,,,0.00,Rainwise IP-100,2013-06-22 12:58:00,
2013-06-22 07:03:00,63.4,54.0,25.59,NNW,337,12.1,18.9,72,0.00,,,0.00,Rainwise IP-100,2013-06-22 13:03:00,
2013-06-22 07:08:00,63.8,54.5,25.59,NW,315,5.6,18.9,72,0.00,,,0.00,Rainwise IP-100,2013-06-22 13:08:00,
2013-06-22 07:13:00,64.2,54.5,25.59,North,360,7.2,20.1,71,0.00,,,0.00,Rainwise IP-100,2013-06-22 13:13:00,
2013-06-22 07:18:00,64.4,54.5,25.59,NNW,337,5.8,20.5,71,0.00,,,0.00,Rainwise IP-100,2013-06-22 13:18:00,
2013-06-22 07:23:00,64.5,54.5,25.59,NNW,337,12.6,20.3,70,0.00,,,0.00,Rainwise IP-100,2013-06-22 13:23:00,
2013-06-22 07:28:00,64.7,54.5,25.59,NNW,337,5.4,20.1,70,0.00,,,0.00,Rainwise IP-100,2013-06-22 13:28:00,
2013-06-22 07:33:00,64.9,54.5,25.59,NNW,337,13.5,18.0,69,0.00,,,0.00,Rainwise IP-100,2013-06-22 13:33:00,
2013-06-22 07:38:00,65.1,54.0,25.59,NNW,337,12.4,23.1,68,0.00,,,0.00,Rainwise IP-100,2013-06-22 13:38:00,
2013-06-22 07:43:00,65.4,54.0,25.59,NNW,337,20.3,23.3,67,0.00,,,0.00,Rainwise IP-100,2013-06-22 13:43:00,
2013-06-22 07:48:00,65.7,54.0,25.59,WNW,292,8.4,24.2,66,0.00,,,0.00,Rainwise IP-100,2013-06-22 13:48:00,
2013-06-22 07:53:00,66.0,54.0,25.59,North,360,17.7,22.2,66,0.00,,,0.00,Rainwise IP-100,2013-06-22 13:53:00,
2013-06-22 07:58:00,66.5,54.0,25.59,NNW,337,17.5,24.0,64,0.00,,,0.00,Rainwise IP-100,2013-06-22 13:58:00,
2013-06-22 08:03:00,67.1,54.0,25.60,North,360,12.6,27.5,62,0.00,,,0.00,Rainwise IP-100,2013-06-22 14:03:00,
2013-06-22 08:08:00,67.5,53.5,25.60,WNW,292,12.4,28.0,61,0.00,,,0.00,Rainwise IP-100,2013-06-22 14:08:00,
2013-06-22 08:13:00,68.0,53.5,25.60,NNW,337,15.6,24.0,60,0.00,,,0.00,Rainwise IP-100,2013-06-22 14:13:00,
2013-06-22 08:18:00,68.5,53.5,25.59,NNW,337,18.2,26.3,59,0.00,,,0.00,Rainwise IP-100,2013-06-22 14:18:00,
2013-06-22 08:23:00,69.0,53.5,25.60,NNW,337,7.7,26.3,58,0.00,,,0.00,Rainwise IP-100,2013-06-22 14:23:00,
2013-06-22 08:28:00,69.2,54.0,25.59,NNW,337,19.8,23.8,58,0.00,,,0.00,Rainwise IP-100,2013-06-22 14:28:00,
2013-06-22 08:33:00,69.2,54.0,25.59,NNW,337,11.2,24.0,58,0.00,,,0.00,Rainwise IP-100,2013-06-22 14:33:00,
2013-06-22 08:38:00,69.3,54.0,25.59,NNW,337,18.7,27.0,59,0.00,,,0.00,Rainwise IP-100,2013-06-22 14:38:00,
2013-06-22 08:43:00,69.4,54.0,25.60,NNW,337,18.0,29.1,59,0.00,,,0.00,Rainwise IP-100,2013-06-22 14:43:00,
2013-06-22 08:48:00,69.8,55.0,25.60,NNW,337,18.9,27.0,60,0.00,,,0.00,Rainwise IP-100,2013-06-22 14:48:00,
2013-06-22 08:53:00,70.2,55.0,25.60,North,360,15.2,25.9,60,0.00,,,0.00,Rainwise IP-100,2013-06-22 14:53:00,
2013-06-22 08:58:00,70.3,56.0,25.60,NNW,337,20.5,25.2,60,0.00,,,0.00,Rainwise IP-100,2013-06-22 14:58:00,
2013-06-22 09:03:00,70.5,56.5,25.60,North,360,18.4,23.6,61,0.00,,,0.00,Rainwise IP-100,2013-06-22 15:03:00,
2013-06-22 09:08:00,71.0,56.5,25.60,North,360,16.1,23.8,61,0.00,,,0.00,Rainwise IP-100,2013-06-22 15:08:00,
2013-06-22 09:14:00,71.7,57.0,25.60,NNW,337,12.4,21.9,60,0.00,,,0.00,Rainwise IP-100,2013-06-22 15:14:00,
2013-06-22 09:19:00,72.3,57.0,25.60,NNE,22,13.1,19.4,59,0.00,,,0.00,Rainwise IP-100,2013-06-22 15:19:00,
2013-06-22 09:24:00,72.5,57.5,25.60,NNW,337,11.9,18.7,59,0.00,,,0.00,Rainwise IP-100,2013-06-22 15:24:00,
2013-06-22 09:29:00,72.5,58.0,25.60,NNE,22,13.5,18.4,60,0.00,,,0.00,Rainwise IP-100,2013-06-22 15:29:00,
2013-06-22 09:34:00,72.4,57.5,25.60,North,360,16.8,18.4,60,0.00,,,0.00,Rainwise IP-100,2013-06-22 15:34:00,
2013-06-22 09:39:00,72.8,58.0,25.60,NNE,22,8.4,16.8,60,0.00,,,0.00,Rainwise IP-100,2013-06-22 15:39:00,
2013-06-22 09:44:00,73.6,59.0,25.60,NNE,22,15.2,17.0,59,0.00,,,0.00,Rainwise IP-100,2013-06-22 15:44:00,
2013-06-22 09:49:00,73.1,57.5,25.60,NNE,22,9.1,16.1,59,0.00,,,0.00,Rainwise IP-100,2013-06-22 15:49:00,
2013-06-22 09:54:00,72.8,57.5,25.60,NNW,337,8.2,21.0,59,0.00,,,0.00,Rainwise IP-100,2013-06-22 15:54:00,
2013-06-22 09:59:00,73.5,59.0,25.60,NNE,22,4.7,17.5,59,0.00,,,0.00,Rainwise IP-100,2013-06-22 15:59:00,
2013-06-22 10:04:00,74.1,58.0,25.60,NNW,337,9.3,18.7,58,0.00,,,0.00,Rainwise IP-100,2013-06-22 16:04:00,
2013-06-22 10:09:00,74.8,59.0,25.60,North,360,15.4,19.6,57,0.00,,,0.00,Rainwise IP-100,2013-06-22 16:09:00,
2013-06-22 10:14:00,75.1,58.0,25.60,NNW,337,8.2,18.2,56,0.00,,,0.00,Rainwise IP-100,2013-06-22 16:14:00,
2013-06-22 10:19:00,75.2,57.5,25.60,NNE,22,10.3,14.7,55,0.00,,,0.00,Rainwise IP-100,2013-06-22 16:19:00,
2013-06-22 10:24:00,75.8,58.0,25.60,NE,45,8.6,16.1,54,0.00,,,0.00,Rainwise IP-100,2013-06-22 16:24:00,
2013-06-22 10:29:00,76.2,58.0,25.60,North,360,7.9,17.5,54,0.00,,,0.00,Rainwise IP-100,2013-06-22 16:29:00,
2013-06-22 10:34:00,76.3,57.5,25.60,NNW,337,5.8,16.3,53,0.00,,,0.00,Rainwise IP-100,2013-06-22 16:34:00,
2013-06-22 10:39:00,76.7,58.0,25.61,NNE,22,11.4,15.4,53,0.00,,,0.00,Rainwise IP-100,2013-06-22 16:39:00,
2013-06-22 10:44:00,76.9,59.0,25.61,NNE,22,1.6,14.9,53,0.00,,,0.00,Rainwise IP-100,2013-06-22 16:44:00,
2013-06-22 10:49:00,77.3,58.0,25.60,ENE,67,8.6,12.6,52,0.00,,,0.00,Rainwise IP-100,2013-06-22 16:49:00,
2013-06-22 10:54:00,77.1,58.0,25.61,NNE,22,11.0,15.2,52,0.00,,,0.00,Rainwise IP-100,2013-06-22 16:54:00,
2013-06-22 10:59:00,77.0,58.0,25.61,NNE,22,11.4,13.1,52,0.00,,,0.00,Rainwise IP-100,2013-06-22 16:59:00,
2013-06-22 11:04:00,77.3,57.5,25.61,NNW,337,6.5,13.1,51,0.00,,,0.00,Rainwise IP-100,2013-06-22 17:04:00,
2013-06-22 11:09:00,77.1,57.5,25.61,North,360,7.2,11.4,51,0.00,,,0.00,Rainwise IP-100,2013-06-22 17:09:00,
2013-06-22 11:14:00,77.3,57.5,25.61,ENE,67,7.0,10.7,51,0.00,,,0.00,Rainwise IP-100,2013-06-22 17:14:00,
2013-06-22 11:19:00,77.1,57.5,25.62,NE,45,6.1,13.5,51,0.00,,,0.00,Rainwise IP-100,2013-06-22 17:19:00,
2013-06-22 11:24:00,76.7,57.0,25.62,ENE,67,3.7,10.5,51,0.00,,,0.00,Rainwise IP-100,2013-06-22 17:24:00,
2013-06-22 11:29:00,76.8,57.0,25.62,North,360,12.8,12.8,51,0.00,,,0.00,Rainwise IP-100,2013-06-22 17:29:00,
2013-06-22 11:34:00,77.0,57.5,25.62,ENE,67,5.8,12.8,51,0.00,,,0.00,Rainwise IP-100,2013-06-22 17:34:00,
2013-06-22 11:39:00,77.1,57.5,25.62,NE,45,3.7,11.7,51,0.00,,,0.00,Rainwise IP-100,2013-06-22 17:39:00,
2013-06-22 11:44:00,77.5,58.0,25.62,ENE,67,5.8,12.6,51,0.00,,,0.00,Rainwise IP-100,2013-06-22 17:44:00,
2013-06-22 11:49:00,77.2,57.5,25.62,ENE,67,7.2,12.1,51,0.00,,,0.00,Rainwise IP-100,2013-06-22 17:49:00,
2013-06-22 11:54:00,76.9,57.0,25.62,ENE,67,5.1,10.3,50,0.00,,,0.00,Rainwise IP-100,2013-06-22 17:54:00,
2013-06-22 11:59:00,77.4,57.5,25.62,NE,45,7.0,11.2,50,0.00,,,0.00,Rainwise IP-100,2013-06-22 17:59:00,
2013-06-22 12:04:00,77.6,57.0,25.62,NNE,22,4.9,9.1,49,0.00,,,0.00,Rainwise IP-100,2013-06-22 18:04:00,
2013-06-22 12:09:00,77.7,57.0,25.62,ENE,67,4.4,12.1,49,0.00,,,0.00,Rainwise IP-100,2013-06-22 18:09:00,
2013-06-22 12:14:00,77.7,56.5,25.62,East,90,2.8,11.4,48,0.00,,,0.00,Rainwise IP-100,2013-06-22 18:14:00,
2013-06-22 12:19:00,77.9,57.0,25.61,ENE,67,8.6,13.8,48,0.00,,,0.00,Rainwise IP-100,2013-06-22 18:19:00,
2013-06-22 12:24:00,78.1,57.0,25.61,ENE,67,4.0,11.2,48,0.00,,,0.00,Rainwise IP-100,2013-06-22 18:24:00,
2013-06-22 12:29:00,78.1,57.0,25.61,ESE,112,5.4,12.8,48,0.00,,,0.00,Rainwise IP-100,2013-06-22 18:29:00,
2013-06-22 12:34:00,78.5,57.5,25.61,ENE,67,4.4,13.5,48,0.00,,,0.00,Rainwise IP-100,2013-06-22 18:34:00,
2013-06-22 12:39:00,79.0,57.0,25.61,ENE,67,3.3,9.1,47,0.00,,,0.00,Rainwise IP-100,2013-06-22 18:39:00,
2013-06-22 12:44:00,79.2,57.0,25.60,NNW,337,3.3,12.6,47,0.00,,,0.00,Rainwise IP-100,2013-06-22 18:44:00,
2013-06-22 12:49:00,79.8,57.0,25.60,NNE,22,6.1,9.3,46,0.00,,,0.00,Rainwise IP-100,2013-06-22 18:49:00,
2013-06-22 12:54:00,80.4,57.5,25.60,ENE,67,7.5,13.8,46,0.00,,,0.00,Rainwise IP-100,2013-06-22 18:54:00,
2013-06-22 12:59:00,80.2,57.0,25.60,ENE,67,5.8,16.1,45,0.00,,,0.00,Rainwise IP-100,2013-06-22 18:59:00,
2013-06-22 13:04:00,79.7,56.5,25.59,ENE,67,4.4,12.4,45,0.00,,,0.00,Rainwise IP-100,2013-06-22 19:04:00,
2013-06-22 13:09:00,79.8,57.0,25.60,East,90,7.5,11.0,46,0.00,,,0.00,Rainwise IP-100,2013-06-22 19:09:00,
2013-06-22 13:14:00,80.0,57.0,25.60,ESE,112,3.0,13.8,46,0.00,,,0.00,Rainwise IP-100,2013-06-22 19:14:00,
2013-06-22 13:19:00,80.5,57.0,25.59,NNW,337,5.6,10.5,45,0.00,,,0.00,Rainwise IP-100,2013-06-22 19:19:00,
2013-06-22 13:24:00,81.1,57.5,25.58,NNE,22,7.9,11.9,45,0.00,,,0.00,Rainwise IP-100,2013-06-22 19:24:00,
2013-06-22 13:29:00,81.4,57.5,25.58,ENE,67,5.1,13.1,44,0.00,,,0.00,Rainwise IP-100,2013-06-22 19:29:00,
2013-06-22 13:34:00,81.3,57.5,25.58,East,90,3.0,12.4,44,0.00,,,0.00,Rainwise IP-100,2013-06-22 19:34:00,
2013-06-22 13:39:00,81.3,56.5,25.58,NE,45,3.0,10.0,43,0.00,,,0.00,Rainwise IP-100,2013-06-22 19:39:00,
2013-06-22 13:44:00,82.0,57.0,25.58,NNE,22,7.7,11.4,43,0.00,,,0.00,Rainwise IP-100,2013-06-22 19:44:00,
2013-06-22 13:49:00,82.9,57.5,25.57,East,90,0.0,9.3,42,0.00,,,0.00,Rainwise IP-100,2013-06-22 19:49:00,
2013-06-22 13:54:00,83.3,57.0,25.57,NNE,22,10.0,14.7,41,0.00,,,0.00,Rainwise IP-100,2013-06-22 19:54:00,
2013-06-22 13:59:00,83.1,57.0,25.57,ENE,67,5.6,16.6,41,0.00,,,0.00,Rainwise IP-100,2013-06-22 19:59:00,
2013-06-22 14:04:00,83.1,57.0,25.57,ENE,67,9.8,14.5,41,0.00,,,0.00,Rainwise IP-100,2013-06-22 20:04:00,
2013-06-22 14:09:00,83.0,56.5,25.56,ENE,67,8.9,11.7,40,0.00,,,0.00,Rainwise IP-100,2013-06-22 20:09:00,
2013-06-22 14:14:00,82.7,56.0,25.56,ENE,67,6.1,15.2,40,0.00,,,0.00,Rainwise IP-100,2013-06-22 20:14:00,
2013-06-22 14:19:00,82.7,55.0,25.56,ESE,112,2.6,9.6,39,0.00,,,0.00,Rainwise IP-100,2013-06-22 20:19:00,
2013-06-22 14:24:00,82.6,55.0,25.56,ENE,67,6.3,12.1,39,0.00,,,0.00,Rainwise IP-100,2013-06-22 20:24:00,
2013-06-22 14:29:00,82.7,54.5,25.55,ESE,112,2.8,10.7,38,0.00,,,0.00,Rainwise IP-100,2013-06-22 20:29:00,
2013-06-22 14:34:00,83.7,54.5,25.55,NNE,22,3.3,9.1,37,0.00,,,0.00,Rainwise IP-100,2013-06-22 20:34:00,
2013-06-22 14:39:00,85.1,54.0,25.55,ESE,112,5.8,10.0,35,0.00,,,0.00,Rainwise IP-100,2013-06-22 20:39:00,
2013-06-22 14:44:00,85.0,53.5,25.55,ENE,67,3.0,10.3,34,0.00,,,0.00,Rainwise IP-100,2013-06-22 20:44:00,
2013-06-22 14:49:00,85.1,53.5,25.54,South,180,2.3,5.8,34,0.00,,,0.00,Rainwise IP-100,2013-06-22 20:49:00,
2013-06-22 14:54:00,86.4,54.0,25.54,SSE,157,5.1,9.8,33,0.00,,,0.00,Rainwise IP-100,2013-06-22 20:54:00,
2013-06-22 14:59:00,86.6,52.0,25.54,WSW,247,7.5,9.1,31,0.00,,,0.00,Rainwise IP-100,2013-06-22 20:59:00,
2013-06-22 15:04:00,86.1,51.0,25.54,SSE,157,5.6,10.7,30,0.00,,,0.00,Rainwise IP-100,2013-06-22 21:04:00,
2013-06-22 15:09:00,86.0,51.0,25.54,ESE,112,7.0,8.4,30,0.00,,,0.00,Rainwise IP-100,2013-06-22 21:09:00,
2013-06-22 15:14:00,86.2,50.5,25.53,SSE,157,7.9,11.2,29,0.00,,,0.00,Rainwise IP-100,2013-06-22 21:14:00,
2013-06-22 15:19:00,86.3,49.0,25.54,South,180,1.9,10.3,28,0.00,,,0.00,Rainwise IP-100,2013-06-22 21:19:00,
2013-06-22 15:24:00,86.7,50.0,25.53,SSE,157,2.6,5.4,28,0.00,,,0.00,Rainwise IP-100,2013-06-22 21:24:00,
2013-06-22 15:29:00,87.2,50.0,25.53,SSE,157,3.5,11.9,28,0.00,,,0.00,Rainwise IP-100,2013-06-22 21:29:00,
2013-06-22 15:34:00,87.4,50.5,25.52,SSE,157,0.0,8.4,28,0.00,,,0.00,Rainwise IP-100,2013-06-22 21:34:00,
2013-06-22 15:39:00,87.6,50.0,25.52,SE,135,3.5,7.5,27,0.00,,,0.00,Rainwise IP-100,2013-06-22 21:39:00,
2013-06-22 15:44:00,87.5,50.0,25.52,SSE,157,3.5,9.1,27,0.00,,,0.00,Rainwise IP-100,2013-06-22 21:44:00,
2013-06-22 15:49:00,87.7,50.5,25.52,SSE,157,6.1,14.0,28,0.00,,,0.00,Rainwise IP-100,2013-06-22 21:49:00,
2013-06-22 15:54:00,88.2,51.0,25.52,ESE,112,2.6,9.8,28,0.00,,,0.00,Rainwise IP-100,2013-06-22 21:54:00,
2013-06-22 15:59:00,88.4,51.0,25.52,ESE,112,4.4,12.1,28,0.00,,,0.00,Rainwise IP-100,2013-06-22 21:59:00,
2013-06-22 16:04:00,88.6,50.5,25.51,ESE,112,5.4,8.6,27,0.00,,,0.00,Rainwise IP-100,2013-06-22 22:04:00,
2013-06-22 16:09:00,88.8,50.5,25.51,SSE,157,2.3,11.7,27,0.00,,,0.00,Rainwise IP-100,2013-06-22 22:09:00,
2013-06-22 16:14:00,88.8,50.0,25.51,South,180,2.6,12.1,26,0.00,,,0.00,Rainwise IP-100,2013-06-22 22:14:00,
2013-06-22 16:19:00,88.8,48.0,25.51,SSE,157,1.9,11.7,25,0.00,,,0.00,Rainwise IP-100,2013-06-22 22:19:00,
2013-06-22 16:24:00,89.4,48.0,25.51,SSE,157,3.5,12.8,24,0.00,,,0.00,Rainwise IP-100,2013-06-22 22:24:00,
2013-06-22 16:29:00,89.6,47.0,25.51,SE,135,11.9,16.3,23,0.00,,,0.00,Rainwise IP-100,2013-06-22 22:29:00,
2013-06-22 16:34:00,89.2,47.0,25.50,SSE,157,14.0,16.8,23,0.00,,,0.00,Rainwise IP-100,2013-06-22 22:34:00,
2013-06-22 16:39:00,89.3,46.0,25.50,South,180,8.2,15.6,22,0.00,,,0.00,Rainwise IP-100,2013-06-22 22:39:00,
2013-06-22 16:44:00,89.7,45.0,25.50,SSW,202,12.1,17.0,21,0.00,,,0.00,Rainwise IP-100,2013-06-22 22:44:00,
2013-06-22 16:49:00,89.9,43.0,25.50,SSE,157,12.8,15.4,20,0.00,,,0.00,Rainwise IP-100,2013-06-22 22:49:00,
2013-06-22 16:54:00,90.1,44.0,25.50,SE,135,4.0,15.6,20,0.00,,,0.00,Rainwise IP-100,2013-06-22 22:54:00,
2013-06-22 16:59:00,90.0,45.0,25.50,ESE,112,6.1,15.6,21,0.00,,,0.00,Rainwise IP-100,2013-06-22 22:59:00,
2013-06-22 17:04:00,89.6,44.0,25.49,ESE,112,11.4,14.9,21,0.00,,,0.00,Rainwise IP-100,2013-06-22 23:04:00,
2013-06-22 17:09:00,89.3,46.0,25.49,SSE,157,10.0,18.7,22,0.00,,,0.00,Rainwise IP-100,2013-06-22 23:09:00,
2013-06-22 17:14:00,89.6,46.0,25.48,SSE,157,7.9,14.5,22,0.00,,,0.00,Rainwise IP-100,2013-06-22 23:14:00,
2013-06-22 17:19:00,90.2,45.0,25.48,SE,135,6.3,12.4,21,0.00,,,0.00,Rainwise IP-100,2013-06-22 23:19:00,
2013-06-22 17:24:00,90.3,44.0,25.48,SSE,157,12.4,14.7,20,0.00,,,0.00,Rainwise IP-100,2013-06-22 23:24:00,
2013-06-22 17:29:00,90.2,42.0,25.47,SSE,157,15.9,20.3,19,0.00,,,0.00,Rainwise IP-100,2013-06-22 23:29:00,
2013-06-22 17:34:00,90.5,41.0,25.47,SSE,157,11.2,16.6,18,0.00,,,0.00,Rainwise IP-100,2013-06-22 23:34:00,
2013-06-22 17:39:00,90.6,40.0,25.47,SSE,157,15.4,19.6,17,0.00,,,0.00,Rainwise IP-100,2013-06-22 23:39:00,
2013-06-22 17:44:00,90.4,38.0,25.46,South,180,10.0,21.9,16,0.00,,,0.00,Rainwise IP-100,2013-06-22 23:44:00,
2013-06-22 17:49:00,90.5,38.0,25.46,SSE,157,11.0,18.0,16,0.00,,,0.00,Rainwise IP-100,2013-06-22 23:49:00,
2013-06-22 17:54:00,90.4,38.0,25.46,SSE,157,11.7,16.8,16,0.00,,,0.00,Rainwise IP-100,2013-06-22 23:54:00,
2013-06-22 17:59:00,90.4,38.0,25.46,SSE,157,9.3,16.8,16,0.00,,,0.00,Rainwise IP-100,2013-06-22 23:59:00,
2013-06-22 18:04:00,90.4,38.0,25.46,SSE,157,11.4,17.7,16,0.00,,,0.00,Rainwise IP-100,2013-06-23 00:04:00,
2013-06-22 18:09:00,90.2,38.0,25.45,SSE,157,4.4,15.9,16,0.00,,,0.00,Rainwise IP-100,2013-06-23 00:09:00,
2013-06-22 18:14:00,90.4,38.0,25.45,SSE,157,7.7,16.6,16,0.00,,,0.00,Rainwise IP-100,2013-06-23 00:14:00,
2013-06-22 18:19:00,90.2,38.0,25.45,SSE,157,11.0,15.4,16,0.00,,,0.00,Rainwise IP-100,2013-06-23 00:19:00,
2013-06-22 18:24:00,89.8,39.0,25.45,SSE,157,8.2,13.8,17,0.00,,,0.00,Rainwise IP-100,2013-06-23 00:24:00,
2013-06-22 18:29:00,89.7,39.0,25.45,SSE,157,13.3,18.0,17,0.00,,,0.00,Rainwise IP-100,2013-06-23 00:29:00,
2013-06-22 18:34:00,89.6,37.0,25.45,SSE,157,6.1,18.2,16,0.00,,,0.00,Rainwise IP-100,2013-06-23 00:34:00,
2013-06-22 18:39:00,89.6,37.0,25.45,South,180,8.9,14.9,16,0.00,,,0.00,Rainwise IP-100,2013-06-23 00:39:00,
2013-06-22 18:44:00,89.6,39.0,25.45,SSE,157,11.9,18.0,17,0.00,,,0.00,Rainwise IP-100,2013-06-23 00:44:00,
2013-06-22 18:49:00,89.4,39.0,25.45,SSE,157,11.2,14.7,17,0.00,,,0.00,Rainwise IP-100,2013-06-23 00:49:00,
2013-06-22 18:54:00,89.3,39.0,25.45,SSE,157,9.3,14.7,17,0.00,,,0.00,Rainwise IP-100,2013-06-23 00:54:00,
2013-06-22 19:00:00,89.3,39.0,25.45,SSE,157,10.0,12.4,17,0.00,,,0.00,Rainwise IP-100,2013-06-23 01:00:00,
2013-06-22 19:05:00,89.3,39.0,25.45,SSE,157,3.3,13.3,17,0.00,,,0.00,Rainwise IP-100,2013-06-23 01:05:00,
2013-06-22 19:10:00,89.1,38.0,25.45,SSE,157,9.8,14.2,17,0.00,,,0.00,Rainwise IP-100,2013-06-23 01:10:00,
2013-06-22 19:15:00,88.8,40.0,25.46,South,180,3.5,13.3,18,0.00,,,0.00,Rainwise IP-100,2013-06-23 01:15:00,
2013-06-22 19:20:00,88.5,39.0,25.45,SSE,157,4.9,11.2,18,0.00,,,0.00,Rainwise IP-100,2013-06-23 01:20:00,
2013-06-22 19:25:00,88.3,39.0,25.46,SSE,157,5.8,9.3,18,0.00,,,0.00,Rainwise IP-100,2013-06-23 01:25:00,
2013-06-22 19:30:00,88.0,39.0,25.46,SSE,157,4.9,8.4,18,0.00,,,0.00,Rainwise IP-100,2013-06-23 01:30:00,
2013-06-22 19:35:00,87.7,40.0,25.47,SSE,157,2.1,7.9,19,0.00,,,0.00,Rainwise IP-100,2013-06-23 01:35:00,
2013-06-22 19:40:00,87.4,40.0,25.47,SE,135,2.6,6.5,19,0.00,,,0.00,Rainwise IP-100,2013-06-23 01:40:00,
2013-06-22 19:45:00,87.1,40.0,25.47,SSE,157,1.2,7.9,19,0.00,,,0.00,Rainwise IP-100,2013-06-23 01:45:00,
2013-06-22 19:50:00,86.7,39.0,25.47,SSE,157,3.5,7.9,19,0.00,,,0.00,Rainwise IP-100,2013-06-23 01:50:00,
2013-06-22 19:55:00,86.3,39.0,25.47,SSE,157,2.8,7.5,19,0.00,,,0.00,Rainwise IP-100,2013-06-23 01:55:00,
2013-06-22 20:00:00,85.9,40.0,25.47,ESE,112,7.9,8.6,20,0.00,,,0.00,Rainwise IP-100,2013-06-23 02:00:00,
2013-06-22 20:05:00,85.6,40.0,25.47,ESE,112,6.5,9.8,20,0.00,,,0.00,Rainwise IP-100,2013-06-23 02:05:00,
2013-06-22 20:10:00,85.2,39.0,25.47,ESE,112,6.5,11.0,20,0.00,,,0.00,Rainwise IP-100,2013-06-23 02:10:00,
2013-06-22 20:15:00,84.8,40.0,25.47,ESE,112,6.1,11.0,21,0.00,,,0.00,Rainwise IP-100,2013-06-23 02:15:00,
2013-06-22 20:20:00,84.5,40.0,25.47,SE,135,6.5,10.3,21,0.00,,,0.00,Rainwise IP-100,2013-06-23 02:20:00,
2013-06-22 20:25:00,84.1,40.0,25.47,East,90,11.9,11.9,21,0.00,,,0.00,Rainwise IP-100,2013-06-23 02:25:00,
2013-06-22 20:30:00,83.1,40.0,25.47,ESE,112,3.5,12.4,22,0.00,,,0.00,Rainwise IP-100,2013-06-23 02:30:00,
2013-06-22 20:35:00,82.4,43.0,25.47,East,90,3.5,11.7,25,0.00,,,0.00,Rainwise IP-100,2013-06-23 02:35:00,
2013-06-22 20:40:00,81.8,46.0,25.47,ESE,112,5.1,11.0,28,0.00,,,0.00,Rainwise IP-100,2013-06-23 02:40:00,
2013-06-22 20:45:00,81.1,47.5,25.47,ESE,112,7.0,11.4,31,0.00,,,0.00,Rainwise IP-100,2013-06-23 02:45:00,
2013-06-22 20:50:00,80.6,50.0,25.47,ESE,112,6.5,10.3,34,0.00,,,0.00,Rainwise IP-100,2013-06-23 02:50:00,
2013-06-22 20:55:00,80.4,51.0,25.47,ESE,112,5.6,11.9,36,0.00,,,0.00,Rainwise IP-100,2013-06-23 02:55:00,
2013-06-22 21:00:00,80.4,53.0,25.47,ESE,112,3.7,12.8,38,0.00,,,0.00,Rainwise IP-100,2013-06-23 03:00:00,
2013-06-22 21:05:00,80.3,53.5,25.47,SE,135,7.5,11.4,39,0.00,,,0.00,Rainwise IP-100,2013-06-23 03:05:00,
2013-06-22 21:10:00,80.1,53.5,25.47,ESE,112,8.9,13.3,40,0.00,,,0.00,Rainwise IP-100,2013-06-23 03:10:00,
2013-06-22 21:15:00,79.9,54.0,25.47,SE,135,6.5,11.7,41,0.00,,,0.00,Rainwise IP-100,2013-06-23 03:15:00,
2013-06-22 21:20:00,79.7,54.5,25.47,ESE,112,10.0,13.5,42,0.00,,,0.00,Rainwise IP-100,2013-06-23 03:20:00,
2013-06-22 21:25:00,79.5,54.5,25.47,SE,135,6.5,13.1,42,0.00,,,0.00,Rainwise IP-100,2013-06-23 03:25:00,
2013-06-22 21:30:00,79.2,54.5,25.48,SE,135,7.2,11.4,43,0.00,,,0.00,Rainwise IP-100,2013-06-23 03:30:00,
2013-06-22 21:35:00,79.0,55.0,25.48,ESE,112,5.1,10.0,44,0.00,,,0.00,Rainwise IP-100,2013-06-23 03:35:00,
2013-06-22 21:40:00,78.7,55.0,25.48,SE,135,8.9,10.0,44,0.00,,,0.00,Rainwise IP-100,2013-06-23 03:40:00,
2013-06-22 21:45:00,78.5,56.0,25.48,ESE,112,9.6,13.1,45,0.00,,,0.00,Rainwise IP-100,2013-06-23 03:45:00,
2013-06-22 21:50:00,78.3,55.0,25.48,SE,135,2.1,10.0,45,0.00,,,0.00,Rainwise IP-100,2013-06-23 03:50:00,
2013-06-22 21:55:00,77.9,55.0,25.48,SE,135,2.6,10.5,45,0.00,,,0.00,Rainwise IP-100,2013-06-23 03:55:00,
2013-06-22 22:00:00,77.3,54.5,25.48,SSE,157,3.0,7.5,45,0.00,,,0.00,Rainwise IP-100,2013-06-23 04:00:00,
2013-06-22 22:01:00,77.3,54.5,25.48,SSE,157,2.3,7.5,45,0.00,,,0.00,Rainwise IP-100,2013-06-23 04:01:00,
2013-06-22 22:06:00,76.7,54.5,25.48,SSE,157,2.8,7.7,46,0.00,,,0.00,Rainwise IP-100,2013-06-23 04:06:00,
2013-06-22 22:11:00,76.3,54.0,25.48,SSE,157,2.1,8.2,46,0.00,,,0.00,Rainwise IP-100,2013-06-23 04:11:00,
2013-06-22 22:16:00,75.8,54.0,25.48,SE,135,0.0,7.0,47,0.00,,,0.00,Rainwise IP-100,2013-06-23 04:16:00,
2013-06-22 22:21:00,75.3,54.0,25.48,South,180,4.9,5.8,47,0.00,,,0.00,Rainwise IP-100,2013-06-23 04:21:00,
2013-06-22 22:26:00,74.9,54.0,25.48,SSE,157,4.2,6.8,48,0.00,,,0.00,Rainwise IP-100,2013-06-23 04:26:00,
2013-06-22 22:31:00,74.8,54.0,25.48,SSE,157,4.4,8.2,48,0.00,,,0.00,Rainwise IP-100,2013-06-23 04:31:00,
2013-06-22 22:36:00,74.8,54.0,25.48,SSE,157,3.7,7.5,48,0.00,,,0.00,Rainwise IP-100,2013-06-23 04:36:00,
2013-06-22 22:41:00,74.8,53.5,25.48,South,180,5.6,7.2,47,0.00,,,0.00,Rainwise IP-100,2013-06-23 04:41:00,
2013-06-22 22:46:00,74.7,53.5,25.47,SSE,157,6.5,8.6,47,0.00,,,0.00,Rainwise IP-100,2013-06-23 04:46:00,
2013-06-22 22:51:00,74.6,53.5,25.48,SSW,202,5.6,7.7,47,0.00,,,0.00,Rainwise IP-100,2013-06-23 04:51:00,
2013-06-22 22:56:00,74.2,53.0,25.48,NW,315,6.5,8.2,47,0.00,,,0.00,Rainwise IP-100,2013-06-23 04:56:00,
2013-06-22 23:01:00,72.9,52.0,25.49,NNW,337,11.9,16.8,48,0.00,,,0.00,Rainwise IP-100,2013-06-23 05:01:00,
2013-06-22 23:06:00,74.1,52.0,25.49,NNW,337,10.7,18.9,46,0.00,,,0.00,Rainwise IP-100,2013-06-23 05:06:00,
2013-06-22 23:11:00,75.3,52.0,25.50,NNW,337,7.5,13.1,44,0.00,,,0.00,Rainwise IP-100,2013-06-23 05:11:00,
2013-06-22 23:16:00,73.5,52.0,25.50,NNE,22,5.4,9.3,47,0.00,,,0.00,Rainwise IP-100,2013-06-23 05:16:00,
2013-06-22 23:21:00,71.6,52.0,25.50,NNE,22,11.0,13.5,50,0.00,,,0.00,Rainwise IP-100,2013-06-23 05:21:00,
2013-06-22 23:26:00,70.2,51.0,25.50,NNE,22,8.2,15.9,52,0.00,,,0.00,Rainwise IP-100,2013-06-23 05:26:00,
2013-06-22 23:31:00,69.3,51.0,25.50,NNE,22,11.2,13.3,53,0.00,,,0.00,Rainwise IP-100,2013-06-23 05:31:00,
2013-06-22 23:36:00,68.6,50.5,25.49,NNE,22,8.6,12.4,53,0.00,,,0.00,Rainwise IP-100,2013-06-23 05:36:00,
2013-06-22 23:41:00,68.2,50.5,25.49,NNE,22,4.7,10.7,54,0.00,,,0.00,Rainwise IP-100,2013-06-23 05:41:00,
2013-06-22 23:46:00,67.7,50.5,25.51,NNW,337,11.9,16.6,55,0.00,,,0.00,Rainwise IP-100,2013-06-23 05:46:00,
2013-06-22 23:50:00,67.3,50.5,25.50,NNW,337,6.8,16.6,55,0.00,,,0.00,Rainwise IP-100,2013-06-23 05:50:00,
2013-06-22 23:55:00,66.9,51.0,25.51,NNW,337,5.1,14.5,56,0.00,,,0.00,Rainwise IP-100,2013-06-23 05:55:00,